Time,TemperatureF,DewpointF,PressureIn,WindDirection,WindDirectionDegrees,WindSpeedMPH,WindSpeedGustMPH,Humidity,HourlyPrecipIn,Conditions,Clouds,dailyrainin,SolarRadiationWatts/m^2,SoftwareType,DateUTC
2013-02-26 00:00:00,28.8,10.4,29.94,East,86,1.0,-999.0,49,-99.99,,,0.01,0.0,cwc,2013-02-26 07:00:00,
2013-02-26 00:05:00,30.0,12.4,29.92,East,88,0.0,-999.0,51,-99.99,,,0.00,0.0,cwc,2013-02-26 07:05:00,
2013-02-26 00:10:00,29.0,11.7,29.92,East,88,0.0,-999.0,52,-99.99,,,0.00,0.0,cwc,2013-02-26 07:10:00,
2013-02-26 00:15:00,28.8,11.2,29.92,East,88,0.0,-999.0,51,-99.99,,,0.00,0.0,cwc,2013-02-26 07:15:00,
2013-02-26 00:20:00,29.0,12.8,29.89,East,88,0.0,-999.0,55,-99.99,,,0.00,0.0,cwc,2013-02-26 07:20:00,
2013-02-26 00:25:00,28.8,12.6,29.89,East,88,0.0,-999.0,55,-99.99,,,0.00,0.0,cwc,2013-02-26 07:25:00,
2013-02-26 00:30:00,28.7,11.8,29.89,East,88,0.0,-999.0,53,-99.99,,,0.00,0.0,cwc,2013-02-26 07:30:00,
2013-02-26 00:35:00,28.8,11.9,29.88,East,88,0.0,-999.0,53,-99.99,,,0.00,0.0,cwc,2013-02-26 07:35:00,
2013-02-26 00:40:00,29.4,17.9,29.88,East,88,0.0,-999.0,68,-99.99,,,0.00,0.0,cwc,2013-02-26 07:40:00,
2013-02-26 00:45:00,29.0,13.5,29.88,East,88,0.0,-999.0,57,-99.99,,,0.00,0.0,cwc,2013-02-26 07:45:00,
2013-02-26 00:50:00,31.3,15.8,29.89,East,88,2.0,-999.0,57,-99.99,,,0.00,0.0,cwc,2013-02-26 07:50:00,
2013-02-26 00:55:00,29.3,17.4,29.89,East,88,0.0,-999.0,67,-99.99,,,0.00,0.0,cwc,2013-02-26 07:55:00,
2013-02-26 01:00:00,29.3,13.8,29.89,East,88,0.0,-999.0,57,-99.99,,,0.00,0.0,cwc,2013-02-26 08:00:00,
2013-02-26 01:05:00,29.0,13.9,29.89,East,88,1.0,-999.0,58,-99.99,,,0.00,0.0,cwc,2013-02-26 08:05:00,
2013-02-26 01:10:00,29.4,13.2,29.89,East,88,0.0,-999.0,55,-99.99,,,0.00,0.0,cwc,2013-02-26 08:10:00,
2013-02-26 01:15:00,30.1,17.1,29.89,East,88,0.0,-999.0,64,-99.99,,,0.00,0.0,cwc,2013-02-26 08:15:00,
2013-02-26 01:20:00,33.2,21.0,29.87,East,88,0.0,-999.0,66,-99.99,,,0.00,0.0,cwc,2013-02-26 08:20:00,
2013-02-26 01:25:00,30.4,13.8,29.87,East,88,0.0,-999.0,54,-99.99,,,0.00,0.0,cwc,2013-02-26 08:25:00,
2013-02-26 01:30:00,30.6,18.7,29.87,East,88,0.0,-999.0,67,-99.99,,,0.00,0.0,cwc,2013-02-26 08:30:00,
2013-02-26 01:35:00,29.1,14.0,29.87,East,88,0.0,-999.0,58,-99.99,,,0.00,0.0,cwc,2013-02-26 08:35:00,
2013-02-26 01:40:00,28.8,12.2,29.87,East,88,0.0,-999.0,54,-99.99,,,0.00,0.0,cwc,2013-02-26 08:40:00,
2013-02-26 01:45:00,28.4,11.1,29.87,East,88,0.0,-999.0,52,-99.99,,,0.00,0.0,cwc,2013-02-26 08:45:00,
2013-02-26 01:50:00,29.7,12.8,29.86,East,88,0.0,-999.0,53,-99.99,,,0.00,0.0,cwc,2013-02-26 08:50:00,
2013-02-26 01:55:00,28.5,17.3,29.86,East,88,0.0,-999.0,69,-99.99,,,0.00,0.0,cwc,2013-02-26 08:55:00,
2013-02-26 02:00:00,30.4,12.8,29.86,East,88,0.0,-999.0,51,-99.99,,,0.00,0.0,cwc,2013-02-26 09:00:00,
2013-02-26 02:05:00,29.4,19.7,29.86,East,88,0.0,-999.0,73,-99.99,,,0.00,0.0,cwc,2013-02-26 09:05:00,
2013-02-26 02:10:00,27.5,15.3,29.86,East,88,0.0,-999.0,66,-99.99,,,0.00,0.0,cwc,2013-02-26 09:10:00,
2013-02-26 02:15:00,29.7,17.1,29.86,East,88,0.0,-999.0,65,-99.99,,,0.00,0.0,cwc,2013-02-26 09:15:00,
2013-02-26 02:20:00,27.8,19.9,29.86,East,88,0.0,-999.0,78,-99.99,,,0.00,0.0,cwc,2013-02-26 09:20:00,
2013-02-26 02:25:00,28.4,17.6,29.86,South,182,0.0,-999.0,70,-99.99,,,0.00,0.0,cwc,2013-02-26 09:25:00,
2013-02-26 02:30:00,27.5,17.1,29.86,South,182,4.0,-999.0,71,-99.99,,,0.00,0.0,cwc,2013-02-26 09:30:00,
2013-02-26 02:35:00,31.6,18.6,29.87,South,182,0.0,-999.0,64,-99.99,,,0.00,0.0,cwc,2013-02-26 09:35:00,
2013-02-26 02:40:00,28.7,-6.6,29.87,South,182,0.0,-999.0,2,-99.99,,,0.00,0.0,cwc,2013-02-26 09:40:00,
2013-02-26 02:45:00,27.2,27.2,29.87,South,182,0.0,-999.0,100,-99.99,,,0.00,0.0,cwc,2013-02-26 09:45:00,
2013-02-26 02:50:00,29.3,29.3,29.85,South,182,0.0,-999.0,100,-99.99,,,0.00,0.0,cwc,2013-02-26 09:50:00,
2013-02-26 02:55:00,29.4,29.4,29.85,South,182,0.0,-999.0,100,-99.99,,,0.00,0.0,cwc,2013-02-26 09:55:00,
2013-02-26 03:00:00,26.7,26.7,29.85,South,182,0.0,-999.0,100,-99.99,,,0.00,0.0,cwc,2013-02-26 10:00:00,
2013-02-26 03:05:00,25.6,25.6,29.84,South,184,0.0,-999.0,100,-99.99,,,0.00,0.0,cwc,2013-02-26 10:05:00,
2013-02-26 03:10:00,33.5,33.5,29.84,South,182,0.0,-999.0,100,-99.99,,,0.00,0.0,cwc,2013-02-26 10:10:00,
2013-02-26 03:15:00,26.6,26.6,29.84,South,182,0.0,-999.0,100,-99.99,,,0.00,0.0,cwc,2013-02-26 10:15:00,
2013-02-26 03:20:00,24.8,24.8,29.83,South,182,0.0,-999.0,100,-99.99,,,0.00,0.0,cwc,2013-02-26 10:20:00,
2013-02-26 03:25:00,23.6,23.6,29.83,South,184,0.0,-999.0,100,-99.99,,,0.00,0.0,cwc,2013-02-26 10:25:00,
2013-02-26 03:30:00,23.6,14.6,29.83,South,182,0.0,-999.0,75,-99.99,,,0.00,0.0,cwc,2013-02-26 10:30:00,
2013-02-26 03:35:00,22.5,13.9,29.87,South,184,0.0,-999.0,76,-99.99,,,0.00,0.0,cwc,2013-02-26 10:35:00,
2013-02-26 03:40:00,21.9,12.2,29.87,South,182,0.0,-999.0,73,-99.99,,,0.00,0.0,cwc,2013-02-26 10:40:00,
2013-02-26 03:45:00,27.3,17.2,29.87,South,182,0.0,-999.0,72,-99.99,,,0.00,0.0,cwc,2013-02-26 10:45:00,
2013-02-26 03:50:00,23.3,20.1,29.84,South,184,0.0,-999.0,91,-99.99,,,0.00,0.0,cwc,2013-02-26 10:50:00,
2013-02-26 03:55:00,23.8,18.4,29.84,South,182,0.0,-999.0,85,-99.99,,,0.00,0.0,cwc,2013-02-26 10:55:00,
2013-02-26 04:00:00,22.2,16.1,29.84,South,182,0.0,-999.0,83,-99.99,,,0.00,0.0,cwc,2013-02-26 11:00:00,
2013-02-26 04:05:00,22.2,17.2,29.86,South,182,0.0,-999.0,86,-99.99,,,0.00,0.0,cwc,2013-02-26 11:05:00,
2013-02-26 04:10:00,22.4,15.9,29.86,South,182,0.0,-999.0,82,-99.99,,,0.00,0.0,cwc,2013-02-26 11:10:00,
2013-02-26 04:15:00,21.6,13.3,29.86,SSE,151,0.0,-999.0,77,-99.99,,,0.00,0.0,cwc,2013-02-26 11:15:00,
2013-02-26 04:20:00,21.1,9.9,29.85,SSE,151,0.0,-999.0,69,-99.99,,,0.00,0.0,cwc,2013-02-26 11:20:00,
2013-02-26 04:25:00,21.1,10.7,29.85,SSE,151,0.0,-999.0,71,-99.99,,,0.00,0.0,cwc,2013-02-26 11:25:00,
2013-02-26 04:30:00,21.9,12.5,29.85,SSE,151,0.0,-999.0,74,-99.99,,,0.00,0.0,cwc,2013-02-26 11:30:00,
2013-02-26 04:35:00,21.8,12.1,29.88,SSE,151,0.0,-999.0,73,-99.99,,,0.00,0.0,cwc,2013-02-26 11:35:00,
2013-02-26 04:40:00,21.6,11.9,29.88,SSE,151,0.0,-999.0,73,-99.99,,,0.00,0.0,cwc,2013-02-26 11:40:00,
2013-02-26 04:45:00,21.9,12.9,29.88,SSE,151,0.0,-999.0,75,-99.99,,,0.00,0.0,cwc,2013-02-26 11:45:00,
2013-02-26 04:50:00,21.6,11.2,29.88,SSE,151,0.0,-999.0,71,-99.99,,,0.00,0.0,cwc,2013-02-26 11:50:00,
2013-02-26 04:55:00,21.8,12.8,29.88,SSE,151,0.0,-999.0,75,-99.99,,,0.00,0.0,cwc,2013-02-26 11:55:00,
2013-02-26 05:00:00,34.1,24.7,29.88,SSE,151,0.0,-999.0,74,-99.99,,,0.00,0.0,cwc,2013-02-26 12:00:00,
2013-02-26 05:05:00,24.4,-9.8,29.77,SSE,151,0.0,-999.0,5,-99.99,,,0.00,0.0,cwc,2013-02-26 12:05:00,
2013-02-26 05:10:00,22.1,-13.9,29.77,SSE,151,0.0,-999.0,0,-99.99,,,0.00,0.0,cwc,2013-02-26 12:10:00,
2013-02-26 05:15:00,22.7,-13.3,29.77,SSE,151,0.0,-999.0,0,-99.99,,,0.00,0.0,cwc,2013-02-26 12:15:00,
2013-02-26 05:20:00,24.4,-11.6,29.92,SSE,151,0.0,-999.0,0,-99.99,,,0.00,0.0,cwc,2013-02-26 12:20:00,
2013-02-26 05:25:00,21.9,-14.1,29.92,SSE,151,0.0,-999.0,0,-99.99,,,0.00,0.0,cwc,2013-02-26 12:25:00,
2013-02-26 05:30:00,21.8,-14.2,29.92,SSE,151,0.0,-999.0,0,-99.99,,,0.00,0.0,cwc,2013-02-26 12:30:00,
2013-02-26 05:35:00,20.8,-15.2,29.92,SSE,151,0.0,-999.0,0,-99.99,,,0.00,0.0,cwc,2013-02-26 12:35:00,
2013-02-26 05:40:00,25.3,6.6,29.92,SSE,151,0.0,-999.0,48,-99.99,,,0.00,0.0,cwc,2013-02-26 12:40:00,
2013-02-26 05:45:00,23.6,-8.1,29.92,SSE,151,0.0,-999.0,12,-99.99,,,0.00,0.0,cwc,2013-02-26 12:45:00,
2013-02-26 05:50:00,21.4,-14.6,29.90,SSE,151,0.0,-999.0,0,-99.99,,,0.00,0.0,cwc,2013-02-26 12:50:00,
2013-02-26 05:55:00,28.2,27.8,29.90,SSE,151,0.0,-999.0,99,-99.99,,,0.00,0.0,cwc,2013-02-26 12:55:00,
2013-02-26 06:00:00,25.3,5.9,29.90,SSE,151,0.0,-999.0,46,-99.99,,,0.00,0.0,cwc,2013-02-26 13:00:00,
2013-02-26 06:05:00,31.2,12.1,29.88,SSE,151,0.0,-999.0,47,-99.99,,,0.00,0.0,cwc,2013-02-26 13:05:00,
2013-02-26 06:10:00,24.5,6.1,29.88,SSE,151,0.0,-999.0,49,-99.99,,,0.00,0.0,cwc,2013-02-26 13:10:00,
2013-02-26 06:15:00,22.2,-3.7,29.88,SSE,151,0.0,-999.0,28,-99.99,,,0.00,0.0,cwc,2013-02-26 13:15:00,
2013-02-26 06:20:00,21.0,-8.5,29.92,SSE,151,0.0,-999.0,18,-99.99,,,0.00,0.0,cwc,2013-02-26 13:20:00,
2013-02-26 06:25:00,21.9,-7.3,29.92,SSE,151,0.0,-999.0,19,-99.99,,,0.00,0.0,cwc,2013-02-26 13:25:00,
2013-02-26 06:30:00,26.3,7.6,29.92,SSE,151,0.0,-999.0,48,-99.99,,,0.00,0.0,cwc,2013-02-26 13:30:00,
2013-02-26 06:35:00,24.7,5.3,29.89,SSE,151,0.0,-999.0,46,-99.99,,,0.00,0.0,cwc,2013-02-26 13:35:00,
2013-02-26 06:40:00,28.2,9.1,29.89,SSE,151,0.0,-999.0,47,-99.99,,,0.00,0.0,cwc,2013-02-26 13:40:00,
2013-02-26 06:45:00,24.2,5.1,29.89,SSE,151,0.0,-999.0,47,-99.99,,,0.00,0.0,cwc,2013-02-26 13:45:00,
2013-02-26 06:50:00,23.5,-3.1,29.91,SSE,151,0.0,-999.0,26,-99.99,,,0.00,0.0,cwc,2013-02-26 13:50:00,
2013-02-26 06:55:00,23.5,-5.7,29.91,SSE,151,0.0,-999.0,19,-99.99,,,0.00,0.0,cwc,2013-02-26 13:55:00,
2013-02-26 07:00:00,21.9,2.1,29.91,SSE,151,0.0,-999.0,45,-99.99,,,0.00,0.0,cwc,2013-02-26 14:00:00,
2013-02-26 07:05:00,27.9,-4.5,29.92,SSE,151,0.0,-999.0,10,-99.99,,,0.00,0.0,cwc,2013-02-26 14:05:00,
2013-02-26 07:10:00,23.3,-8.4,29.92,SSE,151,0.0,-999.0,12,-99.99,,,0.00,0.0,cwc,2013-02-26 14:10:00,
2013-02-26 07:15:00,21.9,-1.9,29.92,SSE,151,0.0,-999.0,34,-99.99,,,0.00,0.0,cwc,2013-02-26 14:15:00,
2013-02-26 07:20:00,22.5,1.3,29.92,SSE,151,0.0,-999.0,41,-99.99,,,0.00,0.0,cwc,2013-02-26 14:20:00,
2013-02-26 07:25:00,25.3,-2.8,29.92,SSE,151,0.0,-999.0,22,-99.99,,,0.00,0.0,cwc,2013-02-26 14:25:00,
2013-02-26 07:30:00,26.6,-2.9,29.92,SSE,151,0.0,-999.0,18,-99.99,,,0.00,0.0,cwc,2013-02-26 14:30:00,
2013-02-26 07:35:00,25.4,-2.7,29.89,SSE,151,0.0,-999.0,22,-99.99,,,0.00,0.0,cwc,2013-02-26 14:35:00,
2013-02-26 07:40:00,24.8,2.5,29.89,SSE,151,0.0,-999.0,38,-99.99,,,0.00,0.0,cwc,2013-02-26 14:40:00,
2013-02-26 07:45:00,24.4,5.0,29.89,SSE,151,0.0,-999.0,46,-99.99,,,0.00,0.0,cwc,2013-02-26 14:45:00,
2013-02-26 07:50:00,23.9,8.1,29.89,SSE,151,0.0,-999.0,56,-99.99,,,0.00,0.0,cwc,2013-02-26 14:50:00,
2013-02-26 07:55:00,24.7,11.0,29.89,SSE,151,0.0,-999.0,62,-99.99,,,0.00,0.0,cwc,2013-02-26 14:55:00,
2013-02-26 08:00:00,26.3,14.1,29.89,SSE,151,0.0,-999.0,66,-99.99,,,0.00,0.0,cwc,2013-02-26 15:00:00,
2013-02-26 08:05:00,27.2,15.3,29.88,SSE,151,0.0,-999.0,67,-99.99,,,0.00,0.0,cwc,2013-02-26 15:05:00,
2013-02-26 08:10:00,26.9,13.6,29.88,SSE,151,0.0,-999.0,63,-99.99,,,0.00,0.0,cwc,2013-02-26 15:10:00,
2013-02-26 08:15:00,27.5,11.7,29.88,SSE,151,0.0,-999.0,56,-99.99,,,0.00,0.0,cwc,2013-02-26 15:15:00,
2013-02-26 08:20:00,27.5,9.9,29.91,SSE,151,0.0,-999.0,51,-99.99,,,0.00,0.0,cwc,2013-02-26 15:20:00,
2013-02-26 08:25:00,27.5,9.1,29.91,SSE,151,0.0,-999.0,49,-99.99,,,0.00,0.0,cwc,2013-02-26 15:25:00,
2013-02-26 08:30:00,27.6,10.0,29.91,SE,137,0.0,-999.0,51,-99.99,,,0.00,0.0,cwc,2013-02-26 15:30:00,
2013-02-26 08:35:00,29.1,11.8,29.91,SE,137,0.0,-999.0,52,-99.99,,,0.00,0.0,cwc,2013-02-26 15:35:00,
2013-02-26 08:40:00,29.3,12.0,29.91,SE,137,0.0,-999.0,52,-99.99,,,0.00,0.0,cwc,2013-02-26 15:40:00,
2013-02-26 08:45:00,29.3,12.0,29.91,SE,137,0.0,-999.0,52,-99.99,,,0.00,0.0,cwc,2013-02-26 15:45:00,
2013-02-26 08:50:00,29.4,10.0,29.90,SE,136,0.0,-999.0,46,-99.99,,,0.00,0.0,cwc,2013-02-26 15:50:00,
2013-02-26 08:55:00,30.3,9.8,29.90,SE,136,0.0,-999.0,43,-99.99,,,0.00,0.0,cwc,2013-02-26 15:55:00,
2013-02-26 09:00:00,30.3,9.8,29.90,SE,136,0.0,-999.0,43,-99.99,,,0.00,0.0,cwc,2013-02-26 16:00:00,
2013-02-26 09:05:00,30.3,9.8,29.89,SE,136,0.0,-999.0,43,-99.99,,,0.00,0.0,cwc,2013-02-26 16:05:00,
2013-02-26 09:10:00,30.3,9.8,29.89,SE,136,0.0,-999.0,43,-99.99,,,0.00,0.0,cwc,2013-02-26 16:10:00,
2013-02-26 09:15:00,30.3,9.8,29.89,SE,136,0.0,-999.0,43,-99.99,,,0.00,0.0,cwc,2013-02-26 16:15:00,
2013-02-26 09:20:00,30.3,9.8,29.88,SE,134,0.0,-999.0,43,-99.99,,,0.00,0.0,cwc,2013-02-26 16:20:00,
2013-02-26 09:25:00,35.0,14.5,29.88,SE,134,0.0,-999.0,43,-99.99,,,0.00,0.0,cwc,2013-02-26 16:25:00,
2013-02-26 09:30:00,36.2,15.7,29.88,SE,134,0.0,-999.0,43,-99.99,,,0.00,0.0,cwc,2013-02-26 16:30:00,
2013-02-26 09:35:00,36.3,13.6,29.84,SE,134,0.0,-999.0,37,-99.99,,,0.00,0.0,cwc,2013-02-26 16:35:00,
2013-02-26 09:40:00,36.3,13.6,29.84,South,189,2.0,-999.0,37,-99.99,,,0.00,0.0,cwc,2013-02-26 16:40:00,
2013-02-26 09:45:00,36.3,13.6,29.84,South,176,7.0,-999.0,37,-99.99,,,0.00,0.0,cwc,2013-02-26 16:45:00,
2013-02-26 09:55:00,37.2,14.5,29.82,SSE,165,6.0,-999.0,37,-99.99,,,0.00,0.0,cwc,2013-02-26 16:55:00,
2013-02-26 10:00:00,37.2,14.5,29.82,WNW,292,1.0,-999.0,37,-99.99,,,0.00,0.0,cwc,2013-02-26 17:00:00,
2013-02-26 10:05:00,37.2,14.5,29.82,WNW,292,1.0,-999.0,37,-99.99,,,0.00,0.0,cwc,2013-02-26 17:05:00,
2013-02-26 10:10:00,37.6,14.9,29.82,West,277,7.0,-999.0,37,-99.99,,,0.00,0.0,cwc,2013-02-26 17:10:00,
2013-02-26 10:15:00,37.6,14.9,29.82,WNW,287,6.0,-999.0,37,-99.99,,,0.00,0.0,cwc,2013-02-26 17:15:00,
2013-02-26 10:20:00,37.6,14.9,29.83,NW,304,2.0,-999.0,37,-99.99,,,0.00,0.0,cwc,2013-02-26 17:20:00,
2013-02-26 10:25:00,38.9,16.2,29.83,WNW,291,2.0,-999.0,37,-99.99,,,0.00,0.0,cwc,2013-02-26 17:25:00,
2013-02-26 10:30:00,38.9,16.2,29.83,NNW,329,8.0,-999.0,37,-99.99,,,0.00,0.0,cwc,2013-02-26 17:30:00,
2013-02-26 10:35:00,38.9,16.2,29.81,NW,304,10.0,-999.0,37,-99.99,,,0.00,0.0,cwc,2013-02-26 17:35:00,
2013-02-26 10:40:00,38.5,15.8,29.81,NW,319,20.0,-999.0,37,-99.99,,,0.00,0.0,cwc,2013-02-26 17:40:00,
2013-02-26 10:45:00,37.8,15.1,29.81,SW,222,18.0,-999.0,37,-99.99,,,0.00,0.0,cwc,2013-02-26 17:45:00,
2013-02-26 10:50:00,37.8,15.1,29.82,SW,222,18.0,-999.0,37,-99.99,,,0.00,0.0,cwc,2013-02-26 17:50:00,
2013-02-26 10:55:00,37.8,15.1,29.82,West,280,6.0,-999.0,37,-99.99,,,0.00,0.0,cwc,2013-02-26 17:55:00,
2013-02-26 11:00:00,38.9,16.2,29.82,SW,219,13.0,-999.0,37,-99.99,,,0.00,0.0,cwc,2013-02-26 18:00:00,
2013-02-26 11:05:00,38.9,16.2,29.80,SW,219,13.0,-999.0,37,-99.99,,,0.00,0.0,cwc,2013-02-26 18:05:00,
2013-02-26 11:10:00,40.5,12.4,29.80,WSW,247,13.0,-999.0,22,-99.99,,,0.00,0.0,cwc,2013-02-26 18:10:00,
2013-02-26 11:15:00,40.8,13.1,29.80,NW,312,15.0,-999.0,23,-99.99,,,0.00,0.0,cwc,2013-02-26 18:15:00,
2013-02-26 11:20:00,40.8,13.1,29.79,WSW,256,16.0,-999.0,23,-99.99,,,0.00,0.0,cwc,2013-02-26 18:20:00,
2013-02-26 11:25:00,40.8,13.1,29.79,WSW,256,16.0,-999.0,23,-99.99,,,0.00,0.0,cwc,2013-02-26 18:25:00,
2013-02-26 11:30:00,40.8,13.1,29.79,West,278,11.0,-999.0,23,-99.99,,,0.00,0.0,cwc,2013-02-26 18:30:00,
2013-02-26 11:35:00,40.6,12.9,29.79,SW,233,18.0,-999.0,23,-99.99,,,0.00,0.0,cwc,2013-02-26 18:35:00,
2013-02-26 11:40:00,40.6,12.9,29.79,SW,233,18.0,-999.0,23,-99.99,,,0.00,0.0,cwc,2013-02-26 18:40:00,
2013-02-26 11:45:00,40.6,12.9,29.79,SW,233,18.0,-999.0,23,-99.99,,,0.00,0.0,cwc,2013-02-26 18:45:00,
2013-02-26 11:50:00,40.6,12.9,29.82,SW,233,18.0,-999.0,23,-99.99,,,0.00,0.0,cwc,2013-02-26 18:50:00,
2013-02-26 11:55:00,40.6,12.9,29.82,SW,233,18.0,-999.0,23,-99.99,,,0.00,0.0,cwc,2013-02-26 18:55:00,
2013-02-26 12:00:00,40.6,12.9,29.82,SW,233,18.0,-999.0,23,-99.99,,,0.00,0.0,cwc,2013-02-26 19:00:00,
2013-02-26 12:05:00,40.6,11.8,29.82,NW,311,18.0,-999.0,20,-99.99,,,0.00,0.0,cwc,2013-02-26 19:05:00,
2013-02-26 12:10:00,40.3,11.5,29.82,NW,315,15.0,-999.0,20,-99.99,,,0.00,0.0,cwc,2013-02-26 19:10:00,
2013-02-26 12:15:00,40.8,11.3,29.82,West,265,13.0,-999.0,18,-99.99,,,0.00,0.0,cwc,2013-02-26 19:15:00,
2013-02-26 12:20:00,40.8,11.3,29.77,West,274,13.0,-999.0,18,-99.99,,,0.00,0.0,cwc,2013-02-26 19:20:00,
2013-02-26 12:25:00,40.8,11.3,29.77,West,274,15.0,-999.0,18,-99.99,,,0.00,0.0,cwc,2013-02-26 19:25:00,
2013-02-26 12:30:00,41.6,12.4,29.77,SW,236,14.0,-999.0,19,-99.99,,,0.00,0.0,cwc,2013-02-26 19:30:00,
2013-02-26 12:35:00,40.9,12.1,29.76,West,265,13.0,-999.0,20,-99.99,,,0.00,0.0,cwc,2013-02-26 19:35:00,
2013-02-26 12:40:00,40.9,12.1,29.76,WNW,295,22.0,-999.0,20,-99.99,,,0.00,0.0,cwc,2013-02-26 19:40:00,
2013-02-26 12:45:00,40.6,10.7,29.76,NW,312,15.0,-999.0,17,-99.99,,,0.00,0.0,cwc,2013-02-26 19:45:00,
2013-02-26 12:50:00,38.5,8.6,29.77,West,268,16.0,-999.0,17,-99.99,,,0.00,0.0,cwc,2013-02-26 19:50:00,
2013-02-26 12:55:00,38.3,9.1,29.77,WNW,296,14.0,-999.0,19,-99.99,,,0.00,0.0,cwc,2013-02-26 19:55:00,
2013-02-26 13:00:00,38.9,9.7,29.77,West,278,4.0,-999.0,19,-99.99,,,0.00,0.0,cwc,2013-02-26 20:00:00,
2013-02-26 13:10:00,40.3,10.8,29.79,WNW,282,22.0,-999.0,18,-99.99,,,0.00,0.0,cwc,2013-02-26 20:10:00,
2013-02-26 13:15:00,38.8,8.9,29.79,West,265,17.0,-999.0,17,-99.99,,,0.00,0.0,cwc,2013-02-26 20:15:00,
2013-02-26 13:20:00,38.3,8.4,29.79,WNW,295,11.0,-999.0,17,-99.99,,,0.00,0.0,cwc,2013-02-26 20:20:00,
2013-02-26 13:25:00,39.3,10.5,29.79,West,265,10.0,-999.0,20,-99.99,,,0.00,0.0,cwc,2013-02-26 20:25:00,
2013-02-26 13:30:00,38.5,9.3,29.79,West,263,16.0,-999.0,19,-99.99,,,0.00,0.0,cwc,2013-02-26 20:30:00,
2013-02-26 13:35:00,38.5,9.3,29.78,WSW,246,10.0,-999.0,19,-99.99,,,0.00,0.0,cwc,2013-02-26 20:35:00,
2013-02-26 13:40:00,39.8,11.7,29.78,WSW,257,9.0,-999.0,22,-99.99,,,0.00,0.0,cwc,2013-02-26 20:40:00,
2013-02-26 13:45:00,37.5,9.4,29.78,WNW,296,20.0,-999.0,22,-99.99,,,0.00,0.0,cwc,2013-02-26 20:45:00,
2013-02-26 13:50:00,38.9,10.1,29.80,NNW,333,18.0,-999.0,20,-99.99,,,0.00,0.0,cwc,2013-02-26 20:50:00,
2013-02-26 13:55:00,39.2,10.8,29.80,WNW,299,11.0,-999.0,21,-99.99,,,0.00,0.0,cwc,2013-02-26 20:55:00,
2013-02-26 14:00:00,37.9,8.7,29.80,West,270,15.0,-999.0,19,-99.99,,,0.00,0.0,cwc,2013-02-26 21:00:00,
2013-02-26 14:05:00,38.0,8.5,29.80,NW,326,16.0,-999.0,18,-99.99,,,0.00,0.0,cwc,2013-02-26 21:05:00,
2013-02-26 14:10:00,39.3,9.1,29.80,WSW,257,9.0,-999.0,16,-99.99,,,0.00,0.0,cwc,2013-02-26 21:10:00,
2013-02-26 14:15:00,39.2,8.6,29.80,NW,322,17.0,-999.0,15,-99.99,,,0.00,0.0,cwc,2013-02-26 21:15:00,
2013-02-26 14:20:00,37.9,7.7,29.82,West,278,8.0,-999.0,16,-99.99,,,0.00,0.0,cwc,2013-02-26 21:20:00,
2013-02-26 14:25:00,37.8,7.6,29.82,West,277,17.0,-999.0,16,-99.99,,,0.00,0.0,cwc,2013-02-26 21:25:00,
2013-02-26 14:30:00,37.0,7.1,29.82,NW,305,11.0,-999.0,17,-99.99,,,0.00,0.0,cwc,2013-02-26 21:30:00,
2013-02-26 14:35:00,38.3,8.4,29.84,NW,319,11.0,-999.0,17,-99.99,,,0.00,0.0,cwc,2013-02-26 21:35:00,
2013-02-26 14:40:00,38.6,8.7,29.84,WNW,282,8.0,-999.0,17,-99.99,,,0.00,0.0,cwc,2013-02-26 21:40:00,
2013-02-26 14:45:00,38.2,8.3,29.84,WNW,301,13.0,-999.0,17,-99.99,,,0.00,0.0,cwc,2013-02-26 21:45:00,
2013-02-26 14:50:00,36.8,6.9,29.83,NW,315,30.0,-999.0,17,-99.99,,,0.00,0.0,cwc,2013-02-26 21:50:00,
2013-02-26 14:55:00,36.5,7.0,29.83,NNW,342,13.0,-999.0,18,-99.99,,,0.00,0.0,cwc,2013-02-26 21:55:00,
2013-02-26 15:00:00,36.0,6.1,29.83,WNW,291,9.0,-999.0,17,-99.99,,,0.00,0.0,cwc,2013-02-26 22:00:00,
2013-02-26 15:05:00,37.6,7.7,29.85,NW,304,20.0,-999.0,17,-99.99,,,0.00,0.0,cwc,2013-02-26 22:05:00,
2013-02-26 15:10:00,37.0,7.1,29.85,WSW,258,16.0,-999.0,17,-99.99,,,0.00,0.0,cwc,2013-02-26 22:10:00,
2013-02-26 15:15:00,36.5,6.6,29.85,NW,320,10.0,-999.0,17,-99.99,,,0.00,0.0,cwc,2013-02-26 22:15:00,
2013-02-26 15:20:00,36.0,6.1,29.86,West,280,17.0,-999.0,17,-99.99,,,0.00,0.0,cwc,2013-02-26 22:20:00,
2013-02-26 15:25:00,35.8,6.6,29.86,WNW,288,9.0,-999.0,19,-99.99,,,0.00,0.0,cwc,2013-02-26 22:25:00,
2013-02-26 15:30:00,37.0,7.5,29.86,NW,319,21.0,-999.0,18,-99.99,,,0.00,0.0,cwc,2013-02-26 22:30:00,
2013-02-26 15:35:00,37.3,7.1,29.86,WNW,301,9.0,-999.0,16,-99.99,,,0.00,0.0,cwc,2013-02-26 22:35:00,
2013-02-26 15:40:00,37.0,7.1,29.86,NW,306,16.0,-999.0,17,-99.99,,,0.00,0.0,cwc,2013-02-26 22:40:00,
2013-02-26 15:45:00,36.3,6.4,29.86,West,281,18.0,-999.0,17,-99.99,,,0.00,0.0,cwc,2013-02-26 22:45:00,
2013-02-26 15:50:00,37.2,7.0,29.89,NNW,330,15.0,-999.0,16,-99.99,,,0.00,0.0,cwc,2013-02-26 22:50:00,
2013-02-26 15:55:00,37.6,7.4,29.89,West,278,10.0,-999.0,16,-99.99,,,0.00,0.0,cwc,2013-02-26 22:55:00,
2013-02-26 16:00:00,36.9,7.4,29.89,NW,311,13.0,-999.0,18,-99.99,,,0.00,0.0,cwc,2013-02-26 23:00:00,
2013-02-26 16:05:00,36.6,7.4,29.88,NNW,330,22.0,-999.0,19,-99.99,,,0.00,0.0,cwc,2013-02-26 23:05:00,
2013-02-26 16:10:00,36.5,7.7,29.88,West,272,7.0,-999.0,20,-99.99,,,0.00,0.0,cwc,2013-02-26 23:10:00,
2013-02-26 16:15:00,36.6,7.8,29.88,WNW,295,9.0,-999.0,20,-99.99,,,0.00,0.0,cwc,2013-02-26 23:15:00,
2013-02-26 16:20:00,36.5,8.1,29.87,West,278,9.0,-999.0,21,-99.99,,,0.00,0.0,cwc,2013-02-26 23:20:00,
2013-02-26 16:25:00,36.6,8.5,29.87,North,350,9.0,-999.0,22,-99.99,,,0.00,0.0,cwc,2013-02-26 23:25:00,
2013-02-26 16:30:00,36.3,8.2,29.87,NW,305,13.0,-999.0,22,-99.99,,,0.00,0.0,cwc,2013-02-26 23:30:00,
2013-02-26 16:35:00,36.0,7.9,29.87,WNW,284,13.0,-999.0,22,-99.99,,,0.00,0.0,cwc,2013-02-26 23:35:00,
2013-02-26 16:40:00,36.2,8.1,29.87,WNW,299,6.0,-999.0,22,-99.99,,,0.00,0.0,cwc,2013-02-26 23:40:00,
2013-02-26 16:45:00,36.0,5.8,29.87,NW,323,10.0,-999.0,16,-99.99,,,0.00,0.0,cwc,2013-02-26 23:45:00,
2013-02-26 16:50:00,36.0,5.8,29.88,WNW,287,4.0,-999.0,16,-99.99,,,0.00,0.0,cwc,2013-02-26 23:50:00,
2013-02-26 16:55:00,35.9,5.7,29.88,WNW,285,9.0,-999.0,16,-99.99,,,0.00,0.0,cwc,2013-02-26 23:55:00,
2013-02-26 17:00:00,35.9,5.7,29.88,WNW,292,17.0,-999.0,16,-99.99,,,0.00,0.0,cwc,2013-02-27 00:00:00,
2013-02-26 17:05:00,35.8,5.6,29.89,WNW,287,11.0,-999.0,16,-99.99,,,0.00,0.0,cwc,2013-02-27 00:05:00,
2013-02-26 17:10:00,35.8,5.6,29.89,West,274,14.0,-999.0,16,-99.99,,,0.00,0.0,cwc,2013-02-27 00:10:00,
2013-02-26 17:15:00,35.3,5.8,29.89,West,263,7.0,-999.0,18,-99.99,,,0.00,0.0,cwc,2013-02-27 00:15:00,
2013-02-26 17:20:00,35.2,5.3,29.90,NW,304,17.0,-999.0,17,-99.99,,,0.00,0.0,cwc,2013-02-27 00:20:00,
2013-02-26 17:25:00,34.9,5.7,29.90,NW,306,0.0,-999.0,19,-99.99,,,0.00,0.0,cwc,2013-02-27 00:25:00,
2013-02-26 17:30:00,35.0,5.5,29.90,West,267,9.0,-999.0,18,-99.99,,,0.00,0.0,cwc,2013-02-27 00:30:00,
2013-02-26 17:35:00,34.9,5.4,29.91,NW,323,10.0,-999.0,18,-99.99,,,0.00,0.0,cwc,2013-02-27 00:35:00,
2013-02-26 17:40:00,34.7,4.8,29.91,West,278,4.0,-999.0,17,-99.99,,,0.00,0.0,cwc,2013-02-27 00:40:00,
2013-02-26 17:45:00,34.4,4.5,29.91,WNW,298,8.0,-999.0,17,-99.99,,,0.00,0.0,cwc,2013-02-27 00:45:00,
2013-02-26 17:50:00,34.4,4.5,29.94,NW,312,10.0,-999.0,17,-99.99,,,0.00,0.0,cwc,2013-02-27 00:50:00,
2013-02-26 17:55:00,34.3,5.9,29.94,NW,322,15.0,-999.0,21,-99.99,,,0.00,0.0,cwc,2013-02-27 00:55:00,
2013-02-26 18:00:00,34.1,5.3,29.94,WNW,284,15.0,-999.0,20,-99.99,,,0.00,0.0,cwc,2013-02-27 01:00:00,
2013-02-26 18:05:00,34.0,5.6,29.95,West,280,11.0,-999.0,21,-99.99,,,0.00,0.0,cwc,2013-02-27 01:05:00,
2013-02-26 18:10:00,33.8,5.4,29.95,NW,304,6.0,-999.0,21,-99.99,,,0.00,0.0,cwc,2013-02-27 01:10:00,
2013-02-26 18:15:00,33.7,5.6,29.95,NNW,333,17.0,-999.0,22,-99.99,,,0.00,0.0,cwc,2013-02-27 01:15:00,
2013-02-26 18:20:00,33.7,5.3,29.95,NNW,328,6.0,-999.0,21,-99.99,,,0.00,0.0,cwc,2013-02-27 01:20:00,
2013-02-26 18:25:00,33.8,5.7,29.95,NW,325,13.0,-999.0,22,-99.99,,,0.00,0.0,cwc,2013-02-27 01:25:00,
2013-02-26 18:30:00,33.5,5.4,29.95,North,356,9.0,-999.0,22,-99.99,,,0.00,0.0,cwc,2013-02-27 01:30:00,
2013-02-26 18:35:00,33.5,5.4,29.97,WSW,244,6.0,-999.0,22,-99.99,,,0.00,0.0,cwc,2013-02-27 01:35:00,
2013-02-26 18:40:00,33.5,5.4,29.97,WNW,295,13.0,-999.0,22,-99.99,,,0.00,0.0,cwc,2013-02-27 01:40:00,
2013-02-26 18:45:00,33.4,5.7,29.97,WNW,291,16.0,-999.0,23,-99.99,,,0.00,0.0,cwc,2013-02-27 01:45:00,
2013-02-26 18:50:00,33.4,5.0,30.00,NW,312,8.0,-999.0,21,-99.99,,,0.00,0.0,cwc,2013-02-27 01:50:00,
2013-02-26 18:55:00,33.2,5.1,30.00,WNW,289,11.0,-999.0,22,-99.99,,,0.00,0.0,cwc,2013-02-27 01:55:00,
2013-02-26 19:00:00,33.2,5.1,30.00,West,274,10.0,-999.0,22,-99.99,,,0.00,0.0,cwc,2013-02-27 02:00:00,
2013-02-26 19:05:00,33.1,5.4,30.01,West,281,7.0,-999.0,23,-99.99,,,0.00,0.0,cwc,2013-02-27 02:05:00,
2013-02-26 19:10:00,33.1,5.4,30.01,WSW,258,4.0,-999.0,23,-99.99,,,0.00,0.0,cwc,2013-02-27 02:10:00,
2013-02-26 19:25:00,32.7,5.7,30.00,West,278,10.0,-999.0,25,-99.99,,,0.00,0.0,cwc,2013-02-27 02:25:00,
2013-02-26 19:30:00,32.5,5.5,30.00,West,281,4.0,-999.0,25,-99.99,,,0.00,0.0,cwc,2013-02-27 02:30:00,
2013-02-26 19:35:00,32.5,6.2,30.01,NW,309,6.0,-999.0,27,-99.99,,,0.00,0.0,cwc,2013-02-27 02:35:00,
2013-02-26 19:40:00,32.4,5.8,30.01,WNW,294,4.0,-999.0,26,-99.99,,,0.00,0.0,cwc,2013-02-27 02:40:00,
2013-02-26 19:45:00,32.4,5.8,30.01,WNW,299,9.0,-999.0,26,-99.99,,,0.00,0.0,cwc,2013-02-27 02:45:00,
2013-02-26 19:50:00,33.2,6.6,30.04,WSW,243,9.0,-999.0,26,-99.99,,,0.00,0.0,cwc,2013-02-27 02:50:00,
2013-02-26 19:55:00,32.4,6.1,30.04,West,277,4.0,-999.0,27,-99.99,,,0.00,0.0,cwc,2013-02-27 02:55:00,
2013-02-26 20:00:00,32.2,5.9,30.04,WNW,294,7.0,-999.0,27,-99.99,,,0.00,0.0,cwc,2013-02-27 03:00:00,
2013-02-26 20:05:00,32.1,5.8,30.05,WNW,292,7.0,-999.0,27,-99.99,,,0.00,0.0,cwc,2013-02-27 03:05:00,
2013-02-26 20:10:00,31.9,6.3,30.05,NW,304,6.0,-999.0,29,-99.99,,,0.00,0.0,cwc,2013-02-27 03:10:00,
2013-02-26 20:15:00,31.9,6.7,30.05,WNW,292,4.0,-999.0,30,-99.99,,,0.00,0.0,cwc,2013-02-27 03:15:00,
2013-02-26 20:20:00,31.8,6.2,30.03,NW,306,8.0,-999.0,29,-99.99,,,0.00,0.0,cwc,2013-02-27 03:20:00,
2013-02-26 20:25:00,31.6,6.0,30.03,WNW,302,8.0,-999.0,29,-99.99,,,0.00,0.0,cwc,2013-02-27 03:25:00,
2013-02-26 20:30:00,31.5,7.0,30.03,WNW,282,7.0,-999.0,32,-99.99,,,0.00,0.0,cwc,2013-02-27 03:30:00,
2013-02-26 20:35:00,31.2,6.0,30.04,WNW,289,7.0,-999.0,30,-99.99,,,0.00,0.0,cwc,2013-02-27 03:35:00,
2013-02-26 20:40:00,30.9,6.4,30.04,WNW,301,1.0,-999.0,32,-99.99,,,0.00,0.0,cwc,2013-02-27 03:40:00,
2013-02-26 20:45:00,30.9,6.1,30.04,West,281,6.0,-999.0,31,-99.99,,,0.00,0.0,cwc,2013-02-27 03:45:00,
2013-02-26 20:50:00,30.6,6.5,30.05,NW,311,4.0,-999.0,33,-99.99,,,0.00,0.0,cwc,2013-02-27 03:50:00,
2013-02-26 20:55:00,30.4,6.6,30.05,WNW,285,4.0,-999.0,34,-99.99,,,0.00,0.0,cwc,2013-02-27 03:55:00,
2013-02-26 21:00:00,30.6,7.2,30.05,West,265,2.0,-999.0,35,-99.99,,,0.00,0.0,cwc,2013-02-27 04:00:00,
2013-02-26 21:05:00,30.6,7.2,30.07,WNW,285,4.0,-999.0,35,-99.99,,,0.00,0.0,cwc,2013-02-27 04:05:00,
2013-02-26 21:10:00,30.6,6.8,30.07,WNW,298,1.0,-999.0,34,-99.99,,,0.00,0.0,cwc,2013-02-27 04:10:00,
2013-02-26 21:15:00,30.4,7.0,30.07,West,274,2.0,-999.0,35,-99.99,,,0.00,0.0,cwc,2013-02-27 04:15:00,
2013-02-26 21:20:00,30.4,7.4,30.03,West,275,4.0,-999.0,36,-99.99,,,0.00,0.0,cwc,2013-02-27 04:20:00,
2013-02-26 21:25:00,30.3,7.3,30.03,WNW,285,4.0,-999.0,36,-99.99,,,0.00,0.0,cwc,2013-02-27 04:25:00,
2013-02-26 21:30:00,30.3,6.9,30.03,WNW,295,4.0,-999.0,35,-99.99,,,0.00,0.0,cwc,2013-02-27 04:30:00,
2013-02-26 21:35:00,30.3,7.6,30.04,NW,320,2.0,-999.0,37,-99.99,,,0.00,0.0,cwc,2013-02-27 04:35:00,
2013-02-26 21:40:00,30.1,7.1,30.04,NNW,329,9.0,-999.0,36,-99.99,,,0.00,0.0,cwc,2013-02-27 04:40:00,
2013-02-26 21:45:00,30.1,7.4,30.04,WNW,291,6.0,-999.0,37,-99.99,,,0.00,0.0,cwc,2013-02-27 04:45:00,
2013-02-26 21:50:00,30.0,7.7,30.05,WNW,295,4.0,-999.0,38,-99.99,,,0.00,0.0,cwc,2013-02-27 04:50:00,
2013-02-26 21:55:00,29.8,7.5,30.05,WNW,288,2.0,-999.0,38,-99.99,,,0.00,0.0,cwc,2013-02-27 04:55:00,
2013-02-26 22:00:00,29.7,7.7,30.05,NW,306,4.0,-999.0,39,-99.99,,,0.00,0.0,cwc,2013-02-27 05:00:00,
2013-02-26 22:05:00,29.7,8.1,30.06,WNW,292,4.0,-999.0,40,-99.99,,,0.00,0.0,cwc,2013-02-27 05:05:00,
2013-02-26 22:10:00,29.4,7.4,30.06,WNW,292,4.0,-999.0,39,-99.99,,,0.00,0.0,cwc,2013-02-27 05:10:00,
2013-02-26 22:15:00,29.4,7.8,30.06,WNW,292,4.0,-999.0,40,-99.99,,,0.00,0.0,cwc,2013-02-27 05:15:00,
2013-02-26 22:20:00,29.0,7.4,30.05,NNW,346,6.0,-999.0,40,-99.99,,,0.00,0.0,cwc,2013-02-27 05:20:00,
2013-02-26 22:25:00,28.8,9.0,30.05,NNE,25,10.0,-999.0,45,-99.99,,,0.00,0.0,cwc,2013-02-27 05:25:00,
2013-02-26 22:30:00,28.8,9.0,30.05,NE,42,11.0,-999.0,45,-99.99,,,0.00,0.0,cwc,2013-02-27 05:30:00,
2013-02-26 22:35:00,28.8,9.0,30.06,NNE,21,10.0,-999.0,45,-99.99,,,0.00,0.0,cwc,2013-02-27 05:35:00,
2013-02-26 22:40:00,28.8,9.0,30.06,NNE,21,10.0,-999.0,45,-99.99,,,0.00,0.0,cwc,2013-02-27 05:40:00,
2013-02-26 22:45:00,28.8,9.0,30.06,NNE,21,10.0,-999.0,45,-99.99,,,0.00,0.0,cwc,2013-02-27 05:45:00,
2013-02-26 22:50:00,28.8,9.0,29.96,NNE,21,10.0,-999.0,45,-99.99,,,0.00,0.0,cwc,2013-02-27 05:50:00,
2013-02-26 22:55:00,28.8,9.0,29.96,NNE,21,10.0,-999.0,45,-99.99,,,0.00,0.0,cwc,2013-02-27 05:55:00,
2013-02-26 23:00:00,28.8,9.0,29.96,NNE,21,10.0,-999.0,45,-99.99,,,0.00,0.0,cwc,2013-02-27 06:00:00,
2013-02-26 23:10:00,28.8,9.0,29.97,NNE,21,10.0,-999.0,45,-99.99,,,0.00,0.0,cwc,2013-02-27 06:10:00,
2013-02-26 23:15:00,28.8,9.0,29.97,NNE,21,10.0,-999.0,45,-99.99,,,0.00,0.0,cwc,2013-02-27 06:15:00,
2013-02-26 23:20:00,28.8,9.0,29.72,NNE,21,10.0,-999.0,45,-99.99,,,0.00,0.0,cwc,2013-02-27 06:20:00,
2013-02-26 23:25:00,28.8,9.0,29.72,NNE,21,10.0,-999.0,45,-99.99,,,0.00,0.0,cwc,2013-02-27 06:25:00,
2013-02-26 23:30:00,28.8,9.0,29.72,NNE,21,10.0,-999.0,45,-99.99,,,0.00,0.0,cwc,2013-02-27 06:30:00,
2013-02-26 23:35:00,28.8,9.0,29.72,NNE,21,10.0,-999.0,45,-99.99,,,0.00,0.0,cwc,2013-02-27 06:35:00,
2013-02-26 23:40:00,28.8,9.0,29.72,NNE,21,10.0,-999.0,45,-99.99,,,0.00,0.0,cwc,2013-02-27 06:40:00,
2013-02-26 23:45:00,28.8,9.0,29.72,NNE,21,10.0,-999.0,45,-99.99,,,0.00,0.0,cwc,2013-02-27 06:45:00,
2013-02-26 23:50:00,28.8,9.0,29.73,NNE,21,10.0,-999.0,45,-99.99,,,0.00,0.0,cwc,2013-02-27 06:50:00,
2013-02-26 23:55:00,28.8,9.0,29.73,NNE,21,10.0,-999.0,45,-99.99,,,0.00,0.0,cwc,2013-02-27 06:55:00,